Time,TemperatureF,DewpointF,PressureIn,WindDirection,WindDirectionDegrees,WindSpeedMPH,WindSpeedGustMPH,Humidity,HourlyPrecipIn,Conditions,Clouds,dailyrainin,SolarRadiationWatts/m^2,SoftwareType,DateUTC
2013-08-17 00:00:00,71.0,43.0,-100.00,West,279,2.0,6.0,37,0.00,,,0.00,0.000000,,2013-08-17 07:00:00,
2013-08-17 00:42:00,71.0,43.0,-100.00,West,279,2.0,6.0,37,0.00,,,0.00,0.000000,,2013-08-17 07:42:00,
2013-08-17 00:52:00,71.0,43.0,-100.00,West,279,2.0,6.0,37,0.00,,,0.00,0.000000,,2013-08-17 07:52:00,
2013-08-17 01:00:00,68.0,41.0,-100.00,WNW,299,1.0,5.0,37,0.00,,,0.00,0.000000,,2013-08-17 08:00:00,
2013-08-17 01:42:00,68.0,41.0,-100.00,WNW,299,1.0,5.0,37,0.00,,,0.00,0.000000,,2013-08-17 08:42:00,
2013-08-17 01:52:00,68.0,41.0,-100.00,WNW,299,1.0,5.0,37,0.00,,,0.00,0.000000,,2013-08-17 08:52:00,
2013-08-17 02:00:00,67.0,41.0,-100.00,NW,317,1.0,5.0,39,0.00,,,0.00,0.000000,,2013-08-17 09:00:00,
2013-08-17 02:43:00,67.0,41.0,-100.00,NW,317,1.0,5.0,39,0.00,,,0.00,0.000000,,2013-08-17 09:43:00,
2013-08-17 02:53:00,67.0,41.0,-100.00,NW,317,1.0,5.0,39,0.00,,,0.00,0.000000,,2013-08-17 09:53:00,
2013-08-17 03:00:00,68.0,43.0,-100.00,West,265,1.0,3.0,40,0.00,,,0.00,0.000000,,2013-08-17 10:00:00,
2013-08-17 03:42:00,68.0,43.0,-100.00,West,265,1.0,3.0,40,0.00,,,0.00,0.000000,,2013-08-17 10:42:00,
2013-08-17 03:52:00,68.0,43.0,-100.00,West,265,1.0,3.0,40,0.00,,,0.00,0.000000,,2013-08-17 10:52:00,
2013-08-17 04:00:00,67.0,42.0,-100.00,North,354,2.0,4.0,40,0.00,,,0.00,0.000000,,2013-08-17 11:00:00,
2013-08-17 04:42:00,67.0,42.0,-100.00,North,354,2.0,4.0,40,0.00,,,0.00,0.000000,,2013-08-17 11:42:00,
2013-08-17 04:52:00,67.0,42.0,-100.00,North,354,2.0,4.0,40,0.00,,,0.00,0.000000,,2013-08-17 11:52:00,
2013-08-17 05:00:00,65.0,43.0,-100.00,West,267,0.0,6.0,44,0.00,,,0.00,0.000000,,2013-08-17 12:00:00,
2013-08-17 05:42:00,65.0,43.0,-100.00,West,267,0.0,6.0,44,0.00,,,0.00,0.000000,,2013-08-17 12:42:00,
2013-08-17 05:52:00,65.0,43.0,-100.00,West,267,0.0,6.0,44,0.00,,,0.00,0.000000,,2013-08-17 12:52:00,
2013-08-17 06:00:00,65.0,42.0,-100.00,NW,319,1.0,5.0,43,0.00,,,0.00,0.000000,,2013-08-17 13:00:00,
2013-08-17 06:42:00,65.0,42.0,-100.00,NW,319,1.0,5.0,43,0.00,,,0.00,0.000000,,2013-08-17 13:42:00,
2013-08-17 06:52:00,65.0,42.0,-100.00,NW,319,1.0,5.0,43,0.00,,,0.00,0.000000,,2013-08-17 13:52:00,
2013-08-17 07:00:00,63.0,41.0,-100.00,NNW,348,0.0,6.0,44,0.00,,,0.00,0.000000,,2013-08-17 14:00:00,
2013-08-17 07:42:00,63.0,41.0,-100.00,NNW,348,0.0,6.0,44,0.00,,,0.00,0.000000,,2013-08-17 14:42:00,
2013-08-17 07:52:00,63.0,41.0,-100.00,NNW,348,0.0,6.0,44,0.00,,,0.00,0.000000,,2013-08-17 14:52:00,
2013-08-17 08:44:00,65.0,36.0,-100.00,NNE,21,3.0,6.0,34,0.00,,,-99.99,14.000000,,2013-08-17 15:44:00,
2013-08-17 09:00:00,72.0,37.0,-100.00,NNE,12,2.0,6.0,28,0.00,,,0.00,194.000000,,2013-08-17 16:00:00,
2013-08-17 09:42:00,72.0,37.0,-100.00,NNE,12,2.0,6.0,28,0.00,,,0.00,194.000000,,2013-08-17 16:42:00,
2013-08-17 09:53:00,72.0,37.0,-100.00,NNE,12,2.0,6.0,28,0.00,,,0.00,194.000000,,2013-08-17 16:53:00,
2013-08-17 10:00:00,78.0,38.0,-100.00,NE,41,4.0,6.0,24,0.00,,,-99.99,439.000000,,2013-08-17 17:00:00,
2013-08-17 10:42:00,78.0,38.0,-100.00,NE,41,4.0,6.0,24,0.00,,,-99.99,439.000000,,2013-08-17 17:42:00,
2013-08-17 10:52:00,78.0,38.0,-100.00,NE,41,4.0,6.0,24,0.00,,,-99.99,439.000000,,2013-08-17 17:52:00,
2013-08-17 11:00:00,82.0,37.0,-100.00,WNW,291,4.0,7.0,20,0.00,,,0.00,676.000000,,2013-08-17 18:00:00,
2013-08-17 11:21:00,82.0,37.0,-100.00,WNW,291,4.0,7.0,20,0.00,,,0.00,676.000000,,2013-08-17 18:21:00,
2013-08-17 11:32:00,82.0,37.0,-100.00,WNW,291,4.0,7.0,20,0.00,,,0.00,676.000000,,2013-08-17 18:32:00,
2013-08-17 11:42:00,82.0,37.0,-100.00,WNW,291,4.0,7.0,20,0.00,,,0.00,676.000000,,2013-08-17 18:42:00,
2013-08-17 11:52:00,82.0,37.0,-100.00,WNW,291,4.0,7.0,20,0.00,,,0.00,676.000000,,2013-08-17 18:52:00,
2013-08-17 12:00:00,86.0,36.0,-100.00,West,274,5.0,8.0,17,0.00,,,0.00,862.000000,,2013-08-17 19:00:00,
2013-08-17 12:42:00,86.0,36.0,-100.00,West,274,5.0,8.0,17,0.00,,,0.00,862.000000,,2013-08-17 19:42:00,
2013-08-17 12:52:00,86.0,36.0,-100.00,West,274,5.0,8.0,17,0.00,,,0.00,862.000000,,2013-08-17 19:52:00,
2013-08-17 13:00:00,89.0,37.0,-100.00,North,9,4.0,11.0,16,0.00,,,0.00,984.000000,,2013-08-17 20:00:00,
2013-08-17 13:42:00,89.0,37.0,-100.00,North,9,4.0,11.0,16,0.00,,,0.00,984.000000,,2013-08-17 20:42:00,
2013-08-17 13:52:00,89.0,37.0,-100.00,North,9,4.0,11.0,16,0.00,,,0.00,984.000000,,2013-08-17 20:52:00,
2013-08-17 14:00:00,92.0,34.0,-100.00,North,358,2.0,12.0,13,0.00,,,0.00,1039.000000,,2013-08-17 21:00:00,
2013-08-17 14:42:00,92.0,34.0,-100.00,North,358,2.0,12.0,13,0.00,,,0.00,1039.000000,,2013-08-17 21:42:00,
2013-08-17 14:53:00,92.0,34.0,-100.00,North,358,2.0,12.0,13,0.00,,,0.00,1039.000000,,2013-08-17 21:53:00,
2013-08-17 15:00:00,95.0,34.0,-100.00,NE,35,6.0,11.0,12,0.00,,,0.00,1034.000000,,2013-08-17 22:00:00,
2013-08-17 15:42:00,95.0,34.0,-100.00,NE,35,6.0,11.0,12,0.00,,,0.00,1034.000000,,2013-08-17 22:42:00,
2013-08-17 15:52:00,95.0,34.0,-100.00,NE,35,6.0,11.0,12,0.00,,,0.00,1034.000000,,2013-08-17 22:52:00,
2013-08-17 16:00:00,93.0,33.0,-100.00,NNW,336,2.0,17.0,12,0.00,,,0.00,969.000000,,2013-08-17 23:00:00,
2013-08-17 16:42:00,93.0,33.0,-100.00,NNW,336,2.0,17.0,12,0.00,,,0.00,969.000000,,2013-08-17 23:42:00,
2013-08-17 16:52:00,93.0,33.0,-100.00,NNW,336,2.0,17.0,12,0.00,,,0.00,969.000000,,2013-08-17 23:52:00,
2013-08-17 17:21:00,98.0,37.0,-100.00,WNW,284,6.0,18.0,12,0.00,,,0.00,840.000000,,2013-08-18 00:21:00,
2013-08-17 17:32:00,98.0,37.0,-100.00,WNW,284,6.0,18.0,12,0.00,,,0.00,840.000000,,2013-08-18 00:32:00,
2013-08-17 17:42:00,98.0,37.0,-100.00,WNW,284,6.0,18.0,12,0.00,,,0.00,840.000000,,2013-08-18 00:42:00,
2013-08-17 18:00:00,95.0,36.0,-100.00,NE,48,4.0,16.0,13,-99.99,,,0.00,667.000000,,2013-08-18 01:00:00,
2013-08-17 18:42:00,95.0,36.0,-100.00,NE,48,4.0,16.0,13,-99.99,,,0.00,667.000000,,2013-08-18 01:42:00,
2013-08-17 18:52:00,95.0,36.0,-100.00,NE,48,4.0,16.0,13,-99.99,,,0.00,667.000000,,2013-08-18 01:52:00,
2013-08-17 19:00:00,87.0,38.0,-100.00,North,357,3.0,11.0,18,-99.99,,,0.00,454.000000,,2013-08-18 02:00:00,
2013-08-17 19:42:00,87.0,38.0,-100.00,North,357,3.0,11.0,18,-99.99,,,0.00,454.000000,,2013-08-18 02:42:00,
2013-08-17 19:52:00,87.0,38.0,-100.00,North,357,3.0,11.0,18,-99.99,,,0.00,454.000000,,2013-08-18 02:52:00,
2013-08-17 20:00:00,-999.0,-99.9,-100.00,WSW,256,5.0,12.0,-999,0.00,,,0.00,113.000000,,2013-08-18 03:00:00,
2013-08-17 20:43:00,82.0,39.0,-100.00,WSW,256,5.0,12.0,22,0.00,,,0.00,113.000000,,2013-08-18 03:43:00,
2013-08-17 20:53:00,82.0,39.0,-100.00,WSW,256,5.0,12.0,22,0.00,,,0.00,113.000000,,2013-08-18 03:53:00,
2013-08-17 21:00:00,75.0,38.0,-100.00,NW,318,1.0,12.0,26,0.00,,,0.00,7.000000,,2013-08-18 04:00:00,
2013-08-17 21:42:00,75.0,38.0,-100.00,NW,318,1.0,12.0,26,0.00,,,0.00,7.000000,,2013-08-18 04:42:00,
2013-08-17 21:53:00,75.0,38.0,-100.00,NW,318,1.0,12.0,26,0.00,,,0.00,7.000000,,2013-08-18 04:53:00,
2013-08-17 22:00:00,72.0,35.0,-100.00,West,265,2.0,9.0,26,0.00,,,0.00,0.000000,,2013-08-18 05:00:00,
2013-08-17 22:42:00,72.0,35.0,-100.00,West,265,2.0,9.0,26,0.00,,,0.00,0.000000,,2013-08-18 05:42:00,
2013-08-17 22:52:00,72.0,35.0,-100.00,West,265,2.0,9.0,26,0.00,,,0.00,0.000000,,2013-08-18 05:52:00,
2013-08-17 23:00:00,71.0,37.0,-100.00,NW,311,1.0,9.0,29,0.00,,,0.00,0.000000,,2013-08-18 06:00:00,
2013-08-17 23:42:00,71.0,37.0,-100.00,NW,311,1.0,9.0,29,0.00,,,0.00,0.000000,,2013-08-18 06:42:00,
2013-08-17 23:52:00,71.0,37.0,-100.00,NW,311,1.0,9.0,29,0.00,,,0.00,0.000000,,2013-08-18 06:52:00,